Location: Unspecified
(43.4354°N, 0.0000°E)
Time: 15:56:38
(UTC+00:00)

Tiros 1 despin weight - All Passes

Search period start: 19 June 2019 00:00
Search period end: 29 June 2019 00:00
Orbit: 595 x 642 km, 48.2° (Epoch: 19 June)

Date Brightness Start Highest point End Pass type
(mag) Time Alt. Az. Time Alt. Az. Time Alt. Az.
19 Jun - 00:36:27 10° SW 00:40:51 66° SSE 00:45:14 10° ENE visible
19 Jun - 02:18:14 10° W 02:22:33 50° N 02:26:52 10° ENE visible
19 Jun - 04:00:17 10° WNW 04:04:36 49° N 04:08:55 10° E daylight
19 Jun - 05:41:55 10° WNW 05:46:19 70° SSW 05:50:44 10° SE daylight
19 Jun - 07:24:36 10° W 07:27:17 16° SW 07:29:59 10° S daylight
19 Jun - 23:12:27 10° SSW 23:16:13 27° SE 23:19:58 10° E visible
20 Jun - 00:53:02 10° WSW 00:57:29 79° NNW 01:01:54 10° ENE visible
20 Jun - 02:35:08 10° WNW 02:39:23 44° N 02:43:38 10° ENE visible
20 Jun - 04:17:00 10° WNW 04:21:22 63° NNE 04:25:47 10° E daylight
20 Jun - 05:58:41 10° WNW 06:02:50 40° SW 06:07:00 10° SSE daylight
20 Jun - 23:28:21 10° SW 23:32:39 49° SSE 23:36:55 10° ENE visible
21 Jun - 01:09:50 10° W 01:14:12 57° NNW 01:18:34 10° ENE visible
21 Jun - 02:51:58 10° WNW 02:56:13 45° N 03:00:30 10° E visible
21 Jun - 04:33:38 10° WNW 04:38:04 90° WSW 04:42:32 10° ESE daylight
21 Jun - 06:15:46 10° W 06:19:14 22° SW 06:22:42 10° S daylight
21 Jun - 22:04:55 10° S 22:08:07 20° SE 22:11:20 10° E visible
21 Jun - 23:44:45 10° WSW 23:49:12 82° SSE 23:53:38 10° ENE visible
22 Jun - 01:26:43 10° W 01:31:01 47° N 01:35:17 10° ENE visible
22 Jun - 03:08:42 10° WNW 03:13:03 54° NNE 03:17:23 10° E visible
22 Jun - 04:50:20 10° WNW 04:54:40 55° SSW 04:59:00 10° SE daylight
22 Jun - 06:33:55 10° WSW 06:35:30 12° SW 06:37:04 10° SSW daylight
22 Jun - 22:20:25 10° SSW 22:24:29 35° SE 22:28:32 10° ENE visible
23 Jun - 00:01:26 10° WSW 00:05:53 68° NNW 00:10:17 10° ENE visible
23 Jun - 01:43:36 10° WNW 01:47:51 44° N 01:52:06 10° ENE visible
23 Jun - 03:25:22 10° WNW 03:29:48 73° NNE 03:34:13 10° ESE visible
23 Jun - 05:07:12 10° W 05:11:07 31° SW 05:15:03 10° SSE daylight
23 Jun - 20:57:51 10° SSE 21:00:05 14° SE 21:02:17 10° ESE visible
23 Jun - 22:36:34 10° SW 22:40:59 62° SSE 22:45:21 10° ENE visible
24 Jun - 00:18:17 10° W 00:22:39 51° NNW 00:26:58 10° ENE visible
24 Jun - 02:00:23 10° WNW 02:04:42 48° N 02:08:59 10° E visible
24 Jun - 03:42:02 10° WNW 03:46:26 75° SSW 03:50:51 10° ESE visible
24 Jun - 05:24:33 10° W 05:27:28 17° SW 05:30:21 10° S daylight
24 Jun - 21:12:40 10° SSW 21:16:22 25° SE 21:20:02 10° E visible
24 Jun - 22:53:06 10° WSW 22:57:35 84° NNW 23:02:02 10° ENE visible
25 Jun - 00:35:11 10° WNW 00:39:28 45° N 00:43:44 10° ENE visible
25 Jun - 02:17:06 10° WNW 02:21:29 60° NNE 02:25:52 10° E visible
25 Jun - 03:58:47 10° WNW 04:02:59 44° SW 04:07:10 10° SE daylight
25 Jun - 21:28:30 10° SW 21:32:47 45° SE 21:37:02 10° ENE visible
25 Jun - 23:09:52 10° W 23:14:18 60° NNW 23:18:41 10° ENE visible
26 Jun - 00:52:02 10° WNW 00:56:19 45° N 01:00:34 10° ENE visible
26 Jun - 02:33:45 10° WNW 02:38:12 85° NNE 02:42:37 10° ESE visible
26 Jun - 04:15:48 10° W 04:19:23 24° SW 04:22:57 10° SSE daylight
26 Jun - 20:05:12 10° S 20:08:16 18° SE 20:11:20 10° E daylight
26 Jun - 21:44:50 10° WSW 21:49:19 76° SSE 21:53:46 10° ENE visible
26 Jun - 23:26:46 10° W 23:31:06 48° N 23:35:24 10° ENE visible
27 Jun - 01:08:48 10° WNW 01:13:08 52° NNE 01:17:27 10° E visible
27 Jun - 02:50:26 10° WNW 02:54:47 60° SSW 02:59:08 10° SE visible
27 Jun - 04:33:40 10° WSW 04:35:39 13° SW 04:37:40 10° SSW daylight
27 Jun - 20:20:35 10° SSW 20:24:37 33° SE 20:28:38 10° ENE visible
27 Jun - 22:01:29 10° WSW 22:05:59 72° NNW 22:10:25 10° ENE visible
27 Jun - 23:43:39 10° WNW 23:47:56 44° N 23:52:11 10° ENE visible
28 Jun - 01:25:28 10° WNW 01:29:54 69° NNE 01:34:18 10° ESE visible
28 Jun - 03:07:16 10° WNW 03:11:16 34° SW 03:15:16 10° SSE visible
28 Jun - 18:58:19 10° SSE 19:00:13 12° SE 19:02:06 10° ESE daylight
28 Jun - 20:36:39 10° SW 20:41:05 57° SSE 20:45:28 10° ENE visible
28 Jun - 22:18:19 10° W 22:22:44 53° NNW 22:27:05 10° ENE visible
